Flag for Norway Weather past 2 weeks in Bodø, Norway

Now
63 °F

Broken clouds.


Feels Like: 63 °F
Forecast: 56 / 59 °F
Wind: 18 mph from East

Location: Bodo Vi

Current Time: Aug 28, 2015 at 10:15:29 AM

Latest Report: Aug 28, 2015 at 9:50 AM


Visibility: N/A

Pressure: 29.30 "Hg

Humidity: 77%

Dew point: 55 °F

Location of BodøLocation

Historic Weather in Bodø — Graph

°F

Bodø temperature yesterday

Maximum temperature yesterday: 70 °F (at 1:50 PM)
Minimum temperature yesterday: 63 °F (at 1:50 AM)
Average temperature yesterday: 66 °F

Past Weeks' High & Low Weather Summary

 TemperatureHumidityPressure
High75 °F (Aug 21, 4:20 PM)100% (Aug 13, 4:50 PM)30.33 "Hg (Aug 13, 4:50 PM)
Low50 °F (Aug 14, 10:50 PM)36% (Aug 16, 3:50 PM)29.30 "Hg (Aug 28, 8:20 AM)
Average63 °F70%30.08 "Hg
* Reported Aug 13 8:20 AM — Aug 28 8:50 AM, Bodø, Weather by CustomWeather, © 2015

Note: Actual official high and low records may vary slightly from our data, if they occured in-between our weather recording intervals... More about our weather records

Advertising

Bodø weather history for previous 24 hours

 ConditionsComfort  
Time TempWeatherWind HumidityBarometerVisibility
8:50 AM
Fri, Aug 28
64 °FPartly sunny.23 mph73%29.30 "HgN/A
8:20 AM64 °FBroken clouds.21 mph68%29.30 "HgN/A
7:50 AM64 °FPartly sunny.23 mph68%29.33 "HgN/A
7:20 AM64 °FPartly sunny.21 mph68%29.33 "HgN/A
6:50 AM64 °FPartly sunny.17 mph73%29.36 "HgN/A
5:50 AM66 °FPartly cloudy.13 mph68%29.36 "HgN/A
4:50 AM64 °FPartly cloudy.17 mph73%29.39 "HgN/A
3:50 AM64 °FPassing clouds.13 mph73%29.42 "HgN/A
2:50 AM64 °FPartly cloudy.18 mph73%29.45 "HgN/A
1:50 AM64 °FPartly cloudy.12 mph78%29.45 "HgN/A
12:50 AM63 °FPartly cloudy.17 mph77%29.45 "HgN/A
11:50 PM
Thu, Aug 27
63 °FPartly cloudy.18 mph77%29.47 "HgN/A
11:20 PM63 °FSprinkles. Partly cloudy.21 mph77%29.47 "HgN/A
10:50 PM63 °FPartly cloudy.16 mph73%29.50 "HgN/A
10:20 PM63 °FPartly cloudy.23 mph73%29.50 "HgN/A
9:50 PM64 °FBroken clouds.22 mph68%29.50 "HgN/A
9:20 PM64 °FBroken clouds.24 mph68%29.50 "HgN/A
8:50 PM64 °FBroken clouds.24 mph68%29.50 "HgN/A
8:20 PM64 °FBroken clouds.15 mph68%29.53 "HgN/A
7:50 PM66 °FPartly sunny.22 mph64%29.53 "HgN/A
7:20 PM66 °FPartly sunny.21 mph64%29.53 "HgN/A
6:50 PM66 °FBroken clouds.15 mph64%29.56 "HgN/A
6:20 PM68 °FBroken clouds.15 mph60%29.56 "HgN/A
5:50 PM68 °FPartly sunny.16 mph60%29.56 "HgN/A
5:20 PM68 °FBroken clouds.18 mph60%29.53 "HgN/A
4:50 PM68 °FBroken clouds.15 mph60%29.53 "HgN/A
4:20 PM70 °FBroken clouds.20 mph53%29.53 "HgN/A
3:50 PM70 °FBroken clouds.14 mph53%29.53 "HgN/A
3:20 PM68 °FScattered clouds.12 mph56%29.53 "HgN/A
2:50 PM70 °FScattered clouds.14 mph57%29.56 "HgN/A
2:20 PM70 °FScattered clouds.15 mph53%29.56 "HgN/A
1:50 PM70 °FScattered clouds.20 mph53%29.56 "HgN/A
1:20 PM68 °FScattered clouds.16 mph60%29.56 "HgN/A
12:50 PM68 °FScattered clouds.17 mph60%29.56 "HgN/A
12:20 PM68 °FPartly sunny.18 mph60%29.59 "HgN/A
11:50 AM68 °FPartly sunny.16 mph60%29.59 "HgN/A
11:20 AM66 °FPartly sunny.16 mph64%29.59 "HgN/A
10:50 AM66 °FPartly sunny.22 mph64%29.59 "HgN/A
10:20 AM68 °FScattered clouds.20 mph64%29.59 "HgN/A
Weather by CustomWeather, © 2015

See weather overviewHow to use our weather pages